WAT603 KPNS-KSDF

Flight info

Callsign WAT603
Flight time 1h 15m
Altitude 32000
Route MVC/N0439F330 VUZ HCH GLAZR LEDDL1
Aircraft C17/H-SDE1E2FGHIJ5RTUWXY/LB1D1

Departure

Time 2026-05-07 18:46
Airport Pensacola International Airport (KPNS)

Arrival

Time 2026-05-07 20:02
Airport Louisville Muhammad Ali International Airport (KSDF)
Time Latitude Longitude Altitude Speed Heading
2026-05-07 18:30 30.47888 -87.19212 116 ft 0 kts 227°
2026-05-07 18:40 30.47882 -87.19218 116 ft 2 kts 208°
2026-05-07 18:40 30.47857 -87.19212 115 ft 4 kts 138°
2026-05-07 18:40 30.47852 -87.19171 116 ft 6 kts 81°
2026-05-07 18:40 30.47829 -87.19107 115 ft 12 kts 152°
2026-05-07 18:41 30.47722 -87.19076 113 ft 18 kts 169°
2026-05-07 18:41 30.47593 -87.19039 111 ft 20 kts 167°
2026-05-07 18:41 30.47450 -87.19001 108 ft 17 kts 165°
2026-05-07 18:41 30.47392 -87.18937 107 ft 11 kts 85°
2026-05-07 18:42 30.47409 -87.18838 108 ft 14 kts 78°
2026-05-07 18:42 30.47434 -87.18697 108 ft 21 kts 78°
2026-05-07 18:42 30.47469 -87.18510 110 ft 26 kts 77°
2026-05-07 18:42 30.47512 -87.18278 112 ft 31 kts 77°
2026-05-07 18:43 30.47559 -87.18015 113 ft 34 kts 79°
2026-05-07 18:43 30.47608 -87.17744 114 ft 32 kts 78°
2026-05-07 18:43 30.47650 -87.17515 112 ft 20 kts 81°
2026-05-07 18:43 30.47590 -87.17451 111 ft 12 kts 174°
2026-05-07 18:44 30.47522 -87.17479 111 ft 6 kts 249°
2026-05-07 18:44 30.47520 -87.17488 111 ft 0 kts 257°
2026-05-07 18:45 30.47518 -87.17494 112 ft 7 kts 258°
2026-05-07 18:45 30.47459 -87.17825 113 ft 75 kts 258°
2026-05-07 18:45 30.47303 -87.18663 109 ft 134 kts 258°
2026-05-07 18:46 30.47109 -87.19842 328 ft 158 kts 265°
2026-05-07 18:46 30.46980 -87.21169 623 ft 181 kts 268°
2026-05-07 18:46 30.46932 -87.22813 826 ft 222 kts 273°
2026-05-07 18:46 30.46984 -87.24645 1465 ft 240 kts 276°
2026-05-07 18:47 30.47178 -87.26628 2181 ft 256 kts 292°
2026-05-07 18:47 30.48267 -87.28217 3002 ft 263 kts 331°
2026-05-07 18:47 30.50048 -87.28627 3861 ft 270 kts 11°
2026-05-07 18:47 30.51810 -87.27913 4696 ft 271 kts 24°
2026-05-07 18:48 30.53577 -87.27084 5322 ft 270 kts 21°
2026-05-07 18:48 30.55332 -87.26227 5607 ft 278 kts 23°
2026-05-07 18:48 30.57132 -87.25358 5725 ft 280 kts 23°
2026-05-07 18:48 30.58983 -87.24493 5683 ft 289 kts 21°
2026-05-07 18:49 30.60855 -87.23607 5677 ft 291 kts 21°
2026-05-07 18:49 30.62731 -87.22744 6079 ft 292 kts 20°
2026-05-07 18:49 30.64621 -87.21855 6494 ft 294 kts 20°
2026-05-07 18:49 30.66562 -87.21143 6819 ft 291 kts
2026-05-07 18:50 30.68560 -87.21246 7137 ft 286 kts 350°
2026-05-07 18:50 30.70529 -87.21549 7534 ft 287 kts 349°
2026-05-07 18:50 30.72502 -87.21884 7939 ft 288 kts 349°
2026-05-07 18:50 30.74483 -87.22235 8342 ft 290 kts 348°
2026-05-07 18:51 30.76477 -87.22604 8755 ft 292 kts 349°
2026-05-07 18:51 30.78497 -87.22964 9113 ft 293 kts 347°
2026-05-07 18:51 30.80538 -87.23341 9474 ft 295 kts 348°
2026-05-07 18:51 30.82563 -87.23709 9805 ft 296 kts 348°
2026-05-07 18:52 30.84595 -87.24081 10137 ft 296 kts 348°
2026-05-07 18:52 30.86696 -87.24446 10400 ft 315 kts 348°
2026-05-07 18:52 30.88936 -87.24859 10732 ft 332 kts 348°
2026-05-07 18:52 30.91260 -87.25272 11112 ft 343 kts 348°
2026-05-07 18:53 30.93635 -87.25700 11573 ft 346 kts 348°
2026-05-07 18:53 30.96015 -87.26128 12092 ft 349 kts 348°
2026-05-07 18:53 30.98448 -87.26556 12576 ft 351 kts 348°
2026-05-07 18:53 31.00863 -87.26989 13037 ft 352 kts 348°
2026-05-07 18:54 31.03331 -87.27083 13613 ft 366 kts
2026-05-07 18:54 31.05856 -87.26607 14128 ft 372 kts
2026-05-07 18:54 31.08431 -87.26099 14629 ft 376 kts
2026-05-07 18:54 31.11010 -87.25585 15102 ft 379 kts
2026-05-07 18:55 31.13621 -87.25059 15630 ft 383 kts
2026-05-07 18:55 31.16292 -87.24513 16280 ft 389 kts
2026-05-07 18:55 31.18997 -87.23937 16737 ft 394 kts
2026-05-07 18:55 31.21709 -87.23334 17140 ft 397 kts
2026-05-07 18:56 31.24455 -87.22716 17473 ft 400 kts
2026-05-07 18:56 31.27202 -87.22117 17793 ft 400 kts
2026-05-07 18:56 31.29962 -87.21735 18133 ft 401 kts
2026-05-07 18:56 31.32728 -87.21371 18500 ft 404 kts
2026-05-07 18:57 31.35529 -87.21004 18866 ft 405 kts
2026-05-07 18:57 31.38310 -87.20641 19207 ft 399 kts
2026-05-07 18:57 31.41115 -87.20285 19428 ft 403 kts 360°
2026-05-07 18:57 31.43903 -87.19913 19605 ft 405 kts
2026-05-07 18:58 31.46706 -87.19548 19826 ft 410 kts 360°
2026-05-07 18:58 31.49567 -87.19170 20084 ft 412 kts 360°
2026-05-07 18:58 31.52439 -87.18792 20350 ft 413 kts 359°
2026-05-07 18:58 31.55278 -87.18420 20612 ft 415 kts 359°
2026-05-07 18:59 31.58178 -87.18038 20877 ft 417 kts 359°
2026-05-07 18:59 31.61061 -87.17659 21140 ft 418 kts 359°
2026-05-07 18:59 31.63954 -87.17279 21401 ft 420 kts 359°
2026-05-07 18:59 31.66843 -87.16899 21661 ft 421 kts 359°
2026-05-07 19:00 31.69760 -87.16515 21921 ft 423 kts 359°
2026-05-07 19:00 31.72729 -87.16124 22184 ft 425 kts 359°
2026-05-07 19:00 31.75658 -87.15738 22441 ft 426 kts 359°
2026-05-07 19:00 31.78602 -87.15350 22698 ft 428 kts 359°
2026-05-07 19:01 31.81599 -87.14954 22959 ft 430 kts 359°
2026-05-07 19:01 31.84591 -87.14558 23219 ft 431 kts 359°
2026-05-07 19:01 31.87559 -87.14166 23475 ft 433 kts 359°
2026-05-07 19:01 31.90545 -87.13771 23732 ft 434 kts 359°
2026-05-07 19:02 31.93566 -87.13371 24005 ft 436 kts 359°
2026-05-07 19:02 31.96575 -87.12974 24278 ft 437 kts 359°
2026-05-07 19:02 31.99629 -87.12569 24555 ft 439 kts 359°
2026-05-07 19:02 32.02680 -87.12164 24830 ft 441 kts 359°
2026-05-07 19:03 32.05724 -87.11759 25108 ft 443 kts 358°
2026-05-07 19:03 32.08800 -87.11349 25381 ft 445 kts 358°
2026-05-07 19:03 32.11887 -87.10938 25647 ft 447 kts 358°
2026-05-07 19:03 32.15029 -87.10520 25909 ft 448 kts 358°
2026-05-07 19:04 32.18133 -87.10108 26158 ft 450 kts 358°
2026-05-07 19:04 32.21286 -87.09690 26399 ft 452 kts 358°
2026-05-07 19:04 32.24439 -87.09270 26635 ft 454 kts 358°
2026-05-07 19:04 32.27566 -87.08853 26861 ft 456 kts 358°
2026-05-07 19:05 32.30759 -87.08427 27075 ft 457 kts 358°
2026-05-07 19:05 32.33925 -87.08004 27290 ft 458 kts 357°
2026-05-07 19:05 32.37102 -87.07579 27501 ft 459 kts 357°
2026-05-07 19:05 32.40279 -87.07154 27704 ft 460 kts 357°
2026-05-07 19:06 32.43493 -87.06724 27903 ft 461 kts 357°
2026-05-07 19:06 32.49879 -87.05868 28247 ft 464 kts 357°
2026-05-07 19:06 32.53114 -87.05434 28436 ft 465 kts 357°
2026-05-07 19:07 32.56305 -87.05004 28642 ft 464 kts 357°
2026-05-07 19:07 32.59508 -87.04574 28849 ft 464 kts 357°
2026-05-07 19:07 32.62751 -87.04138 29052 ft 463 kts 356°
2026-05-07 19:07 32.65940 -87.03709 29246 ft 463 kts 356°
2026-05-07 19:08 32.69133 -87.03280 29439 ft 462 kts 356°
2026-05-07 19:08 32.72380 -87.02843 29631 ft 462 kts 356°
2026-05-07 19:08 32.75613 -87.02407 29819 ft 461 kts 356°
2026-05-07 19:08 32.78870 -87.01968 30002 ft 460 kts 356°
2026-05-07 19:09 32.82087 -87.01534 30171 ft 460 kts 356°
2026-05-07 19:09 32.85263 -87.01105 30332 ft 459 kts 356°
2026-05-07 19:09 32.88473 -87.00671 30492 ft 459 kts 356°
2026-05-07 19:09 32.91665 -87.00240 30646 ft 459 kts 356°
2026-05-07 19:10 32.94844 -86.99809 30785 ft 458 kts 356°
2026-05-07 19:10 32.98063 -86.99374 30913 ft 459 kts 356°
2026-05-07 19:10 33.01259 -86.98940 31038 ft 459 kts 356°
2026-05-07 19:10 33.04502 -86.98500 31165 ft 459 kts 356°
2026-05-07 19:11 33.07728 -86.98062 31286 ft 459 kts 356°
2026-05-07 19:11 33.10978 -86.97620 31407 ft 458 kts 356°
2026-05-07 19:11 33.14182 -86.97184 31520 ft 458 kts 355°
2026-05-07 19:11 33.17406 -86.96745 31631 ft 457 kts 355°
2026-05-07 19:12 33.20607 -86.96310 31749 ft 457 kts 355°
2026-05-07 19:12 33.23831 -86.95870 31864 ft 457 kts 355°
2026-05-07 19:12 33.27043 -86.95432 31980 ft 457 kts 355°
2026-05-07 19:12 33.30218 -86.95000 32055 ft 458 kts 355°
2026-05-07 19:13 33.36591 -86.94130 32067 ft 464 kts 355°
2026-05-07 19:13 33.43093 -86.93239 32063 ft 469 kts 355°
2026-05-07 19:14 33.49631 -86.92342 32049 ft 473 kts 355°
2026-05-07 19:14 33.56168 -86.91444 32048 ft 476 kts 355°
2026-05-07 19:15 33.62777 -86.90534 32044 ft 479 kts 355°
2026-05-07 19:15 33.66114 -86.89870 32089 ft 497 kts
2026-05-07 19:15 33.69291 -86.87949 32177 ft 524 kts 27°
2026-05-07 19:16 33.72275 -86.85337 32075 ft 532 kts 29°
2026-05-07 19:16 33.75259 -86.82686 32053 ft 534 kts 29°
2026-05-07 19:16 33.81253 -86.77377 32041 ft 537 kts 29°
2026-05-07 19:17 33.87310 -86.72012 32032 ft 539 kts 29°
2026-05-07 19:17 33.93369 -86.66635 32037 ft 541 kts 29°
2026-05-07 19:18 33.99441 -86.61238 32044 ft 543 kts 29°
2026-05-07 19:18 34.05513 -86.55830 32047 ft 545 kts 29°
2026-05-07 19:19 34.11661 -86.50343 32046 ft 548 kts 28°
2026-05-07 19:19 34.17858 -86.44803 32041 ft 550 kts 28°
2026-05-07 19:20 34.24054 -86.39256 32035 ft 551 kts 28°
2026-05-07 19:20 34.30203 -86.33739 32022 ft 551 kts 29°
2026-05-07 19:21 34.36374 -86.28191 32013 ft 550 kts 29°
2026-05-07 19:21 34.42292 -86.22861 32016 ft 551 kts 29°
2026-05-07 19:22 34.48432 -86.17321 32019 ft 551 kts 29°
2026-05-07 19:22 34.54577 -86.11766 32021 ft 551 kts 29°
2026-05-07 19:23 34.60756 -86.06169 32022 ft 551 kts 29°
2026-05-07 19:23 34.66934 -86.00564 32021 ft 552 kts 29°
2026-05-07 19:24 34.73106 -85.94951 32020 ft 552 kts 29°
2026-05-07 19:24 34.79229 -85.89374 32021 ft 552 kts 28°
2026-05-07 19:25 34.85401 -85.83744 32026 ft 552 kts 28°
2026-05-07 19:25 34.91553 -85.78120 32033 ft 553 kts 28°
2026-05-07 19:26 34.97733 -85.72456 32038 ft 555 kts 28°
2026-05-07 19:26 35.03939 -85.66760 32043 ft 556 kts 28°
2026-05-07 19:27 35.10119 -85.61076 32044 ft 557 kts 28°
2026-05-07 19:27 35.16349 -85.55336 32035 ft 557 kts 28°
2026-05-07 19:28 35.22586 -85.49577 32030 ft 558 kts 28°
2026-05-07 19:28 35.28778 -85.43849 32031 ft 558 kts 28°
2026-05-07 19:29 35.35009 -85.38074 32036 ft 559 kts 28°
2026-05-07 19:29 35.41235 -85.32293 32009 ft 560 kts 28°
2026-05-07 19:30 35.47454 -85.26504 32001 ft 560 kts 28°
2026-05-07 19:30 35.53670 -85.20707 31996 ft 561 kts 28°
2026-05-07 19:31 35.59914 -85.14874 31999 ft 561 kts 28°
2026-05-07 19:31 35.66156 -85.09029 32003 ft 562 kts 28°
2026-05-07 19:32 35.72385 -85.03186 32011 ft 562 kts 28°
2026-05-07 19:32 35.78745 -84.97772 31880 ft 535 kts 12°
2026-05-07 19:33 35.82172 -84.96446 31948 ft 504 kts 359°
2026-05-07 19:33 35.85599 -84.95480 32018 ft 505 kts
2026-05-07 19:33 35.92481 -84.93401 32008 ft 508 kts
2026-05-07 19:34 35.99396 -84.91273 32016 ft 510 kts
2026-05-07 19:34 36.06319 -84.89139 32028 ft 512 kts
2026-05-07 19:35 36.13263 -84.86993 32024 ft 512 kts
2026-05-07 19:35 36.20237 -84.84834 32011 ft 510 kts
2026-05-07 19:36 36.27120 -84.82703 32006 ft 509 kts
2026-05-07 19:36 36.34010 -84.80565 32009 ft 510 kts
2026-05-07 19:37 36.40900 -84.78423 32008 ft 509 kts
2026-05-07 19:37 36.44324 -84.77830 31920 ft 481 kts 348°
2026-05-07 19:37 36.47660 -84.77657 32017 ft 479 kts 348°
2026-05-07 19:38 36.54202 -84.77262 31985 ft 448 kts 347°
2026-05-07 19:38 36.57278 -84.77079 31953 ft 434 kts 347°
2026-05-07 19:38 36.60282 -84.76907 31355 ft 434 kts 346°
2026-05-07 19:39 36.63305 -84.76743 30507 ft 439 kts 347°
2026-05-07 19:39 36.66402 -84.76562 29688 ft 447 kts 347°
2026-05-07 19:39 36.69484 -84.76374 29072 ft 444 kts 347°
2026-05-07 19:39 36.72573 -84.76180 28639 ft 442 kts 347°
2026-05-07 19:40 36.75664 -84.75999 28123 ft 447 kts 348°
2026-05-07 19:40 36.78791 -84.75809 27690 ft 448 kts 348°
2026-05-07 19:40 36.81916 -84.75619 27183 ft 448 kts 348°
2026-05-07 19:40 36.85029 -84.75427 26811 ft 446 kts 349°
2026-05-07 19:41 36.88114 -84.75242 26342 ft 442 kts 349°
2026-05-07 19:41 36.91057 -84.75523 25835 ft 407 kts 333°
2026-05-07 19:41 36.93785 -84.76432 25433 ft 401 kts 331°
2026-05-07 19:41 36.96457 -84.77319 25077 ft 398 kts 332°
2026-05-07 19:42 36.99154 -84.78213 24602 ft 398 kts 332°
2026-05-07 19:42 37.01837 -84.79096 24228 ft 397 kts 332°
2026-05-07 19:42 37.04478 -84.79968 23758 ft 394 kts 333°
2026-05-07 19:42 37.07139 -84.80846 23374 ft 391 kts 333°
2026-05-07 19:43 37.09760 -84.81712 22913 ft 390 kts 333°
2026-05-07 19:43 37.12364 -84.82572 22518 ft 388 kts 334°
2026-05-07 19:43 37.14999 -84.83443 22062 ft 385 kts 334°
2026-05-07 19:43 37.17607 -84.84306 21637 ft 382 kts 334°
2026-05-07 19:44 37.20179 -84.85156 21213 ft 379 kts 334°
2026-05-07 19:44 37.22709 -84.85992 20802 ft 377 kts 334°
2026-05-07 19:44 37.25247 -84.86835 20394 ft 373 kts 334°
2026-05-07 19:44 37.27734 -84.87659 19987 ft 370 kts 335°
2026-05-07 19:45 37.30231 -84.88490 19560 ft 368 kts 335°
2026-05-07 19:45 37.32703 -84.89307 19148 ft 366 kts 335°
2026-05-07 19:45 37.35142 -84.90120 18764 ft 362 kts 335°
2026-05-07 19:45 37.37573 -84.90926 18351 ft 361 kts 335°
2026-05-07 19:46 37.39993 -84.91734 17960 ft 358 kts 335°
2026-05-07 19:46 37.42365 -84.92520 17575 ft 356 kts 336°
2026-05-07 19:46 37.44725 -84.93412 17114 ft 344 kts 326°
2026-05-07 19:46 37.46608 -84.95048 16709 ft 321 kts 311°
2026-05-07 19:47 37.48304 -84.96893 16374 ft 323 kts 312°
2026-05-07 19:47 37.50001 -84.98711 16027 ft 322 kts 313°
2026-05-07 19:47 37.51715 -85.00550 15669 ft 322 kts 313°
2026-05-07 19:47 37.53399 -85.02359 15312 ft 321 kts 313°
2026-05-07 19:48 37.55102 -85.04188 14947 ft 320 kts 313°
2026-05-07 19:48 37.56775 -85.05983 14798 ft 309 kts 314°
2026-05-07 19:48 37.58638 -85.07375 14716 ft 327 kts 333°
2026-05-07 19:48 37.60835 -85.08230 14316 ft 330 kts 336°
2026-05-07 19:49 37.63023 -85.09073 13931 ft 327 kts 336°
2026-05-07 19:49 37.65205 -85.09911 13550 ft 325 kts 336°
2026-05-07 19:49 37.67340 -85.10733 13184 ft 322 kts 336°
2026-05-07 19:49 37.69465 -85.11556 12818 ft 321 kts 336°
2026-05-07 19:50 37.71537 -85.12521 12376 ft 311 kts 324°
2026-05-07 19:50 37.73035 -85.14333 11943 ft 296 kts 301°
2026-05-07 19:50 37.73724 -85.16711 11260 ft 289 kts 277°
2026-05-07 19:50 37.73914 -85.19212 10747 ft 285 kts 277°
2026-05-07 19:51 37.74137 -85.21697 10211 ft 285 kts 277°
2026-05-07 19:51 37.74352 -85.24109 10029 ft 272 kts 278°
2026-05-07 19:51 37.74558 -85.26401 9988 ft 253 kts 278°
2026-05-07 19:51 37.74728 -85.28585 9835 ft 248 kts 275°
2026-05-07 19:52 37.74825 -85.30755 9825 ft 251 kts 276°
2026-05-07 19:52 37.74932 -85.32975 9775 ft 255 kts 276°
2026-05-07 19:52 37.75042 -85.35236 9494 ft 257 kts 276°
2026-05-07 19:52 37.75151 -85.37498 9228 ft 257 kts 276°
2026-05-07 19:53 37.75258 -85.39724 8961 ft 256 kts 276°
2026-05-07 19:53 37.75367 -85.41981 8688 ft 256 kts 277°
2026-05-07 19:53 37.75637 -85.44177 8437 ft 255 kts 284°
2026-05-07 19:53 37.75970 -85.46392 8144 ft 256 kts 283°
2026-05-07 19:54 37.76293 -85.48584 7860 ft 255 kts 284°
2026-05-07 19:54 37.76623 -85.50803 7568 ft 255 kts 284°
2026-05-07 19:54 37.76948 -85.52991 7280 ft 254 kts 284°
2026-05-07 19:54 37.77348 -85.55149 7036 ft 252 kts 299°
2026-05-07 19:55 37.78452 -85.56870 6928 ft 254 kts 317°
2026-05-07 19:55 37.79689 -85.58429 6674 ft 253 kts 317°
2026-05-07 19:55 37.80948 -85.59997 6439 ft 252 kts 317°
2026-05-07 19:55 37.82190 -85.61539 6218 ft 251 kts 317°
2026-05-07 19:56 37.83456 -85.63023 6034 ft 249 kts 329°
2026-05-07 19:56 37.85101 -85.63795 5841 ft 253 kts 347°
2026-05-07 19:56 37.86803 -85.64353 5511 ft 251 kts 346°
2026-05-07 19:56 37.88464 -85.64899 5206 ft 248 kts 346°
2026-05-07 19:57 37.90132 -85.65449 4995 ft 245 kts 346°
2026-05-07 19:57 37.91811 -85.65995 4929 ft 248 kts 346°
2026-05-07 19:57 37.93491 -85.66545 4925 ft 248 kts 346°
2026-05-07 19:57 37.95165 -85.67098 4913 ft 249 kts 346°
2026-05-07 19:58 37.96855 -85.67601 4905 ft 250 kts 353°
2026-05-07 19:58 37.98624 -85.67995 4341 ft 272 kts 340°
2026-05-07 19:58 38.00442 -85.68787 4060 ft 281 kts 345°
2026-05-07 19:58 38.02295 -85.69583 3921 ft 283 kts 331°
2026-05-07 19:59 38.03946 -85.70913 4030 ft 276 kts 340°
2026-05-07 19:59 38.05761 -85.70985 4299 ft 253 kts 12°
2026-05-07 19:59 38.07494 -85.70978 3848 ft 247 kts 344°
2026-05-07 19:59 38.08902 -85.71654 4344 ft 194 kts 344°
2026-05-07 20:00 38.10336 -85.71750 3945 ft 225 kts
2026-05-07 20:00 38.11869 -85.72251 2290 ft 239 kts 340°
2026-05-07 20:00 38.13293 -85.72993 1664 ft 211 kts 338°
2026-05-07 20:00 38.14649 -85.73593 1019 ft 207 kts 343°
2026-05-07 20:01 38.15980 -85.73974 490 ft 178 kts 344°
2026-05-07 20:01 38.17058 -85.74322 484 ft 141 kts 340°
2026-05-07 20:01 38.17897 -85.74604 486 ft 110 kts 350°
2026-05-07 20:01 38.18503 -85.74811 484 ft 57 kts 340°
2026-05-07 20:02 38.18656 -85.74844 483 ft 6 kts 297°
2026-05-07 20:02 38.18645 -85.74880 483 ft 4 kts 209°
2026-05-07 20:02 38.18593 -85.74867 483 ft 10 kts 161°
2026-05-07 20:02 38.18531 -85.74834 483 ft 9 kts 155°
2026-05-07 20:03 38.18481 -85.74773 483 ft 10 kts 103°
2026-05-07 20:03 38.18481 -85.74677 483 ft 10 kts 104°
2026-05-07 20:03 38.18431 -85.74632 483 ft 8 kts 164°
2026-05-07 20:03 38.18373 -85.74609 483 ft 8 kts 167°
2026-05-07 20:04 38.18314 -85.74593 484 ft 8 kts 165°
2026-05-07 20:04 38.18252 -85.74571 484 ft 9 kts 164°
2026-05-07 20:04 38.18184 -85.74546 484 ft 11 kts 163°
2026-05-07 20:04 38.18103 -85.74516 484 ft 12 kts 157°
2026-05-07 20:05 38.18047 -85.74426 484 ft 13 kts 111°
2026-05-07 20:05 38.18009 -85.74309 484 ft 14 kts 111°
2026-05-07 20:05 38.18029 -85.74216 485 ft 11 kts 22°
2026-05-07 20:05 38.18100 -85.74238 485 ft 10 kts 330°
2026-05-07 20:06 38.18151 -85.74307 485 ft 10 kts 314°
2026-05-07 20:06 38.18191 -85.74383 484 ft 10 kts 292°
2026-05-07 20:06 38.18229 -85.74467 484 ft 9 kts 316°
2026-05-07 20:06 38.18261 -85.74480 484 ft 2 kts 20°
2026-05-07 20:07 38.18273 -85.74459 484 ft 3 kts 78°
2026-05-07 20:07 38.18265 -85.74434 484 ft 1 kts 139°
2026-05-07 20:07 38.18262 -85.74432 484 ft 0 kts 148°